Date String (YYYY-MM-DD hh:mm:ss) UTC,Instrument flags,Ambient pressure (hPa),Sample flow (lpm),Bypass flow (lpm),Sample temperature (°C),Ambient temperature (°C),ASC tube jacket temperature (°C),LED temperature (°C),Box temperature (°C),Sample RH (%),Span deviation,Mass concentration (μg/m³),Mass concentration (μg/m³),Mass concentration (μg/m³)
DateTimeUTC,F1_M11,P_M11,Q1_M11,Q2_M11,T1_M11,T2_M11,T3_M11,T4_M11,T5_M11,U1_M11,ZSPAN_M11,X0_M11,X2_M11,X1_M11
2022-02-08 10:00:00,,0826.0,5.01,0.00,23.0,22.2,00.0,32.0,24.8,05.3,0000.0,0001.73,0000.72,0000.47
2022-02-08 10:01:00,,0826.1,5.00,0.00,23.0,22.2,00.0,32.0,24.8,05.4,0000.0,0001.70,0000.73,0000.47
2022-02-08 10:02:00,,0826.0,4.99,0.00,22.9,22.1,00.0,32.0,24.7,05.4,0000.0,0002.87,0000.73,0000.46
2022-02-08 10:03:00,,0825.9,5.00,0.00,22.9,22.1,00.0,32.0,24.7,05.3,0000.0,0003.18,0000.74,0000.47
2022-02-08 10:04:00,,0825.9,5.01,0.00,22.9,22.2,00.0,32.0,24.7,05.4,0000.0,0003.08,0000.72,0000.46
2022-02-08 10:05:00,,0825.9,4.99,0.00,22.9,22.2,00.0,32.0,24.7,05.4,0000.0,0003.12,0000.75,0000.47
2022-02-08 10:06:00,,0826.0,4.99,0.00,23.0,22.2,00.0,32.0,24.8,05.4,0000.0,0003.11,0000.78,0000.47
2022-02-08 10:07:00,,0825.9,5.00,0.00,23.0,22.3,00.0,32.0,24.8,05.5,0000.0,0003.27,0000.83,0000.47
2022-02-08 10:08:00,,0825.9,5.02,0.00,23.0,22.3,00.0,32.0,24.8,05.4,0000.0,0003.26,0000.84,0000.47
2022-02-08 10:09:00,,0825.9,4.99,0.00,23.0,22.3,00.0,32.0,24.8,05.4,0000.0,0003.12,0000.85,0000.49
2022-02-08 10:10:00,,0825.9,4.99,0.00,23.0,22.3,00.0,32.0,24.8,05.5,0000.0,0003.11,0000.86,0000.49
2022-02-08 10:11:00,,0825.8,5.00,0.00,23.0,22.3,00.0,32.0,24.8,05.5,0000.0,0003.20,0000.86,0000.49
2022-02-08 10:12:00,,0825.9,5.01,0.00,23.0,22.3,00.0,32.0,24.8,05.5,0000.0,0003.15,0000.83,0000.49
2022-02-08 10:13:00,,0825.9,5.00,0.00,23.0,22.3,00.0,32.0,24.8,05.4,0000.0,0002.02,0000.79,0000.49
2022-02-08 10:14:00,,0825.9,5.00,0.00,23.0,22.3,00.0,32.0,24.8,05.4,0000.0,0001.43,0000.77,0000.49
2022-02-08 10:15:00,,0825.9,4.99,0.00,23.0,22.3,00.0,32.0,24.9,05.4,0000.0,0002.27,0000.80,0000.50
2022-02-08 10:16:00,,0825.9,5.00,0.00,23.0,22.3,00.0,32.0,24.9,05.4,0000.0,0002.53,0000.78,0000.50
2022-02-08 10:17:00,,0825.9,5.01,0.00,23.1,22.4,00.0,32.0,24.9,05.4,0000.0,0002.49,0000.76,0000.51
2022-02-08 10:18:00,,0825.8,5.00,0.00,23.1,22.4,00.0,32.0,24.9,05.4,0000.0,0002.34,0000.72,0000.52
2022-02-08 10:19:00,,0825.9,4.99,0.00,23.1,22.4,00.0,32.0,25.0,05.3,0000.0,0002.39,0000.71,0000.52
2022-02-08 10:20:00,,0825.8,5.01,0.00,23.1,22.4,00.0,32.0,25.0,05.3,0000.0,0002.42,0000.69,0000.51
2022-02-08 10:21:00,,0825.8,5.01,0.00,23.1,22.4,00.0,32.0,25.0,05.4,0000.0,0002.49,0000.73,0000.52
2022-02-08 10:22:00,,0825.7,5.00,0.00,23.1,22.4,00.0,32.0,25.0,05.3,0000.0,0002.55,0000.77,0000.52
2022-02-08 10:23:00,,0825.6,5.00,0.00,23.1,22.4,00.0,32.0,25.0,05.3,0000.0,0002.58,0000.80,0000.52
2022-02-08 10:24:00,,0825.6,5.00,0.00,23.1,22.4,00.0,32.0,24.9,05.6,0000.0,0002.68,0000.83,0000.52
2022-02-08 10:25:00,,0825.5,4.99,0.00,23.1,22.4,00.0,32.1,24.9,05.7,0000.0,0002.92,0000.85,0000.52
2022-02-08 10:26:00,,0825.5,5.01,0.00,23.1,22.4,00.0,32.0,24.9,05.8,0000.0,0002.13,0000.83,0000.52
2022-02-08 10:27:00,,0825.5,4.98,0.00,23.1,22.4,00.0,32.1,24.9,05.7,0000.0,0001.87,0000.84,0000.52
2022-02-08 10:28:00,,0825.6,5.01,0.00,23.1,22.3,00.0,32.1,24.9,05.6,0000.0,0001.87,0000.85,0000.52
2022-02-08 10:29:00,,0825.6,4.99,0.00,23.1,22.3,00.0,32.1,24.9,05.4,0000.0,0001.86,0000.84,0000.52
2022-02-08 10:30:00,,0825.7,5.00,0.00,23.1,22.3,00.0,32.1,24.9,05.6,0000.0,0001.82,0000.85,0000.52
2022-02-08 10:31:00,,0825.8,5.00,0.00,23.1,22.3,00.0,32.1,24.9,05.4,0000.0,0001.84,0000.88,0000.53
2022-02-08 10:32:00,,0825.7,5.01,0.00,23.1,22.4,00.0,32.1,24.9,05.5,0000.0,0002.02,0000.89,0000.53
2022-02-08 10:33:00,,0825.7,5.00,0.00,23.2,22.4,00.0,32.1,24.9,05.8,0000.0,0002.11,0000.90,0000.53
2022-02-08 10:34:00,,0825.7,5.00,0.00,23.2,22.4,00.0,32.1,24.9,05.9,0000.0,0002.11,0000.90,0000.53
2022-02-08 10:35:00,,0825.6,5.02,0.00,23.1,22.4,00.0,32.1,24.9,05.8,0000.0,0002.05,0000.88,0000.54
2022-02-08 10:36:00,,0825.6,5.00,0.00,23.1,22.4,00.0,32.1,24.9,05.8,0000.0,0001.76,0000.86,0000.54
2022-02-08 10:37:00,,0825.6,4.99,0.00,23.1,22.4,00.0,32.1,24.8,05.8,0000.0,0001.82,0000.86,0000.54
2022-02-08 10:38:00,,0825.7,5.01,0.00,23.1,22.3,00.0,32.1,24.9,06.0,0000.0,0001.85,0000.85,0000.54
2022-02-08 10:39:00,,0825.7,5.00,0.00,23.1,22.3,00.0,32.1,24.8,06.0,0000.0,0001.86,0000.84,0000.53
2022-02-08 10:40:00,,0825.7,5.00,0.00,23.1,22.2,00.0,32.1,24.8,06.0,0000.0,0001.88,0000.84,0000.53
2022-02-08 10:41:00,,0825.8,5.01,0.00,23.1,22.2,00.0,32.1,24.8,06.1,0000.0,0001.86,0000.83,0000.52
2022-02-08 10:42:00,,0825.9,5.00,0.00,23.1,22.2,00.0,32.1,24.8,06.0,0000.0,0001.87,0000.83,0000.52
2022-02-08 10:43:00,,0825.7,5.00,0.00,23.1,22.2,00.0,32.1,24.8,06.0,0000.0,0001.68,0000.80,0000.52
2022-02-08 10:44:00,,0825.7,5.02,0.00,23.1,22.2,00.0,32.1,24.8,05.6,0000.0,0001.75,0000.76,0000.53
2022-02-08 10:45:00,,0825.8,4.99,0.00,23.0,22.1,00.0,32.1,24.6,05.8,0000.0,0001.94,0000.74,0000.52
2022-02-08 10:46:00,,0825.7,4.99,0.00,23.0,22.1,00.0,32.1,24.6,05.9,0000.0,0002.20,0000.74,0000.52
2022-02-08 10:47:00,,0825.7,5.01,0.00,23.0,22.1,00.0,32.1,24.6,05.9,0000.0,0003.12,0000.75,0000.51
2022-02-08 10:48:00,,0825.7,5.00,0.00,23.0,22.1,00.0,32.1,24.6,05.8,0000.0,0003.45,0000.76,0000.51
2022-02-08 10:49:00,,0825.6,4.98,0.00,23.0,22.1,00.0,32.1,24.6,06.0,0000.0,0003.37,0000.76,0000.51
2022-02-08 10:50:00,,0825.7,5.01,0.00,23.0,22.0,00.0,32.0,24.6,05.8,0000.0,0003.38,0000.77,0000.52
2022-02-08 10:51:00,,0825.6,5.00,0.00,23.0,22.0,00.0,32.0,24.6,06.0,0000.0,0003.43,0000.80,0000.52
2022-02-08 10:52:00,,0825.6,5.00,0.00,22.9,21.9,00.0,32.0,24.5,06.3,0000.0,0003.43,0000.80,0000.52
2022-02-08 10:53:00,,0825.5,5.00,0.00,22.9,21.9,00.0,32.0,24.6,06.0,0000.0,0003.29,0000.76,0000.52
2022-02-08 10:54:00,,0825.6,5.00,0.00,22.9,21.9,00.0,32.0,24.6,05.9,0000.0,0003.31,0000.75,0000.51
2022-02-08 10:55:00,,0825.5,5.00,0.00,22.9,21.9,00.0,32.0,24.5,05.8,0000.0,0003.13,0000.79,0000.51
2022-02-08 10:56:00,,0825.5,4.99,0.00,22.9,21.9,00.0,32.0,24.6,05.5,0000.0,0003.11,0000.79,0000.51
2022-02-08 10:57:00,,0825.5,5.00,0.00,22.9,21.9,00.0,32.0,24.5,05.7,0000.0,0002.99,0000.80,0000.52
2022-02-08 10:58:00,,0825.5,5.01,0.00,22.9,21.8,00.0,32.0,24.4,05.7,0000.0,0002.15,0000.81,0000.51
2022-02-08 10:59:00,,0825.6,4.99,0.00,22.9,21.9,00.0,31.9,24.5,06.1,0000.0,0001.91,0000.81,0000.52
